Location: Newark
(44.3867°N, 6.6531°E)
Time: 05:28:00
(UTC+00:00)

Envisat - Pass Details

Date: 02 February 2020
Orbit: 764 x 766 km, 98.1° (Epoch: 27 February)

Event Time Altitude Azimuth Distance (km) Brightness Sun altitude
Rises 06:13:56 0° 14° (NNE) 3,242 6.2 -7.1°
Reaches altitude 10° 06:16:15 10° 15° (NNE) 2,311 5.5 -6.7°
Maximum altitude 06:21:21 80° 103° (ESE) 782 3.2 -5.8°
Drops below altitude 10° 06:26:25 10° 191° (S) 2,294 5.6 -5.0°
Sets 06:28:43 0° 192° (SSW) 3,215 6.3 -4.6°
